Temperature
6 6 6 6 6 6 6 6 6 6 6 7 8 8 9 9 9 9 10 10 10 10 10 9 8 8 7 6 6 5 5 4 4 4 4 4 4 4 4 3 4 4 4 4
5 6 6 5 5 5 6 6 6 6 7 7 8 9 9 9 9 9 10 11 11 10 10 9 8 8 7 6 5 4 4 3 3 3 3 3 2 2 2 2 3 3 3 3
5 5 6 5 5 5 5 5 6 6 8 8 7 7 9 10 10 10 11 11 11 10 10 9 8 7 6 5 4 4 3 3 2 2 2 2 1 1 1 1 2 2 2 2
4 5 4 6 7 6 5 6 5 6 6 7 7 9 10 10 10 11 11 11 11 10 10 9 8 6 5 4 4 3 2 2 2 1 1 1 0 1 1 1 1 1 1 1
4 4 4 5 6 6 5 5 6 6 6 7 8 7 8 10 10 11 11 11 10 10 9 8 7 6 5 4 3 3 2 2 1 1 1 0 0 0 0 1 1 1 1 1
4 5 5 6 7 7 6 6 7 6 5 6 6 5 7 9 10 10 10 10 10 9 8 7 6 6 5 4 3 3 2 2 1 1 1 1 1 0 0 1 1 0 0 0
4 4 4 5 6 7 6 7 7 7 6 6 5 7 8 9 9 9 9 9 9 8 8 7 6 5 5 4 4 3 2 2 1 1 1 1 1 1 1 0 0 0 0 0
4 4 5 6 6 6 6 7 7 7 7 7 7 8 8 9 9 9 9 8 8 7 7 6 6 5 5 4 3 3 3 2 2 1 1 1 1 1 0 0 0 0 0 -0
4 5 6 7 7 8 7 7 8 8 8 8 8 8 8 8 8 8 8 7 7 7 6 6 5 5 5 4 3 3 3 2 2 2 1 1 1 1 0 0 0 0 0 -0
3 4 5 7 7 7 7 7 8 8 8 8 8 8 8 8 7 7 7 7 7 6 6 6 5 5 4 4 3 3 3 3 2 2 2 1 1 1 0 0 0 0 0 -0
3 4 5 7 7 7 7 7 7 8 8 8 7 7 7 7 7 7 6 6 6 6 6 5 5 5 4 4 3 3 3 3 2 2 2 1 1 1 1 0 0 -0 -0 -0
4 4 4 5 6 6 6 7 7 7 7 7 7 7 7 7 6 6 6 6 6 6 5 5 5 5 4 4 3 3 3 3 2 2 2 1 1 1 1 0 0 -0 -0 -0
3 4 4 5 5 5 6 6 6 6 6 6 6 6 6 6 6 6 5 5 5 5 5 5 5 4 4 4 3 3 3 3 2 2 2 1 1 1 1 0 0 -0 -0 -0
3 3 3 4 4 4 5 5 5 5 5 5 5 5 5 5 5 5 5 5 4 4 4 4 4 4 4 3 3 3 3 2 2 2 1 1 1 1 0 0 0 -0 -0 -1
2 2 2 3 3 4 4 4 4 4 4 4 4 4 4 4 4 4 4 4 4 4 4 4 4 4 3 3 3 3 2 2 2 1 1 1 0 0 -0 -0 -0 -0 -1 -1
1 1 2 2 2 3 3 3 3 3 3 3 3 3 3 3 3 3 3 3 3 3 3 3 3 3 2 2 2 2 2 2 1 1 1 0 0 0 -0 -0 -0 -0 -1 -1
-0 0 1 1 1 2 2 2 2 2 2 2 2 2 2 2 2 2 2 2 2 2 2 2 2 2 2 2 2 2 1 1 1 1 1 0 0 -0 -0 -0 -1 -1 -1 -2
-1 -0 -0 0 0 1 1 1 1 1 1 1 1 1 1 2 2 2 2 2 2 1 1 1 2 1 1 1 1 1 1 1 0 0 0 0 0 -0 -1 -1 -1 -1 -2 -2
-1 -1 -1 -0 -0 -0 0 0 0 0 0 1 1 1 1 1 1 1 1 1 1 1 1 1 1 1 1 1 1 0 0 0 -0 -0 -0 -0 -1 -1 -1 -1 -1 -1 -2 -2
-2 -2 -1 -1 -1 -1 -1 -1 -1 -1 -0 -0 -0 -0 0 0 0 0 0 0 0 0 0 0 0 0 0 0 0 0 -0 -0 -0 -1 -1 -1 -1 -1 -1 -2 -2 -2 -2 -3
-2 -2 -2 -2 -2 -2 -2 -2 -1 -1 -1 -1 -1 -1 -1 -0 -0 -0 -0 -0 -1 -1 -1 -1 -1 -0 -0 -0 -0 -0 -1 -1 -1 -1 -1 -1 -2 -2 -2 -2 -2 -2 -3 -3
-2 -2 -2 -2 -2 -2 -2 -2 -2 -1 -1 -1 -1 -1 -1 -1 -1 -1 -1 -1 -1 -1 -1 -1 -1 -1 -1 -1 -1 -1 -1 -1 -2 -2 -2 -2 -3 -3 -3 -3 -3 -3 -3 -4
-2 -2 -2 -2 -2 -2 -2 -2 -2 -2 -2 -2 -2 -2 -2 -2 -2 -1 -1 -2 -2 -2 -2 -2 -2 -2 -2 -2 -2 -2 -2 -2 -2 -3 -3 -3 -3 -4 -4 -4 -4 -4 -4 -4
-2 -2 -2 -2 -2 -2 -2 -2 -2 -2 -2 -2 -2 -2 -2 -2 -2 -2 -2 -2 -2 -2 -2 -2 -2 -2 -2 -2 -3 -3 -3 -3 -3 -3 -3 -4 -4 -4 -4 -4 -5 -5 -5 -5
-2 -2 -2 -2 -2 -2 -2 -2 -2 -2 -2 -2 -2 -2 -2 -2 -2 -2 -2 -2 -2 -2 -2 -2 -3 -3 -3 -3 -3 -3 -3 -4 -4 -4 -4 -4 -4 -5 -5 -5 -5 -5 -5 -5
-2 -2 -2 -2 -2 -2 -2 -2 -2 -2 -2 -2 -2 -2 -3 -3 -3 -3 -3 -3 -3 -3 -3 -3 -3 -3 -3 -3 -4 -4 -4 -4 -4 -4 -4 -4 -5 -5 -5 -5 -5 -5 -5 -5
-2 -2 -2 -2 -2 -2 -2 -2 -2 -2 -2 -2 -2 -2 -3 -3 -3 -3 -3 -3 -3 -3 -3 -3 -3 -4 -4 -4 -4 -4 -4 -4 -4 -5 -5 -5 -5 -5 -5 -5 -5 -5 -5 -5
Wind_Speed
2 2 4 6 7 11 13 12 10 9 10 12 9 8 6 6 7 7 8 8 10 9 8 7 7 6 6 5 5 5 5 5 4 4 4 4 4 5 5 6 6 6 6 7
1 0 3 4 8 10 13 12 14 13 15 9 8 6 6 8 9 10 10 11 10 9 9 9 9 8 7 6 5 5 5 5 5 5 4 4 4 5 6 6 6 6 7 7
2 2 2 7 10 13 8 8 10 17 16 7 7 9 10 10 11 12 12 11 11 11 11 10 10 9 8 7 6 6 6 5 5 5 5 4 5 5 5 5 6 6 6 6
2 2 6 8 2 6 8 9 11 10 9 8 12 11 9 9 11 12 11 10 10 9 9 8 8 8 8 7 7 6 6 6 5 5 5 5 5 5 5 4 5 5 5 5
3 3 8 8 4 5 7 7 8 12 14 11 7 3 5 7 9 10 9 7 7 7 8 8 9 9 9 8 7 7 7 6 6 6 6 6 5 5 4 4 4 4 4 4
4 2 5 6 3 3 3 5 4 5 9 7 4 4 6 4 5 5 4 4 6 7 7 9 9 9 9 8 8 7 7 6 6 6 6 6 6 4 3 4 4 3 3 3
4 4 7 7 4 4 2 5 5 4 6 5 7 6 2 2 4 4 5 5 7 8 8 8 9 10 9 8 8 7 7 6 6 6 6 6 5 4 4 4 3 2 1 1
5 5 8 4 3 5 6 4 5 5 4 2 3 1 2 4 5 5 5 6 6 7 6 7 9 9 9 8 7 7 7 7 6 6 5 5 5 5 4 4 3 2 1 2
7 8 5 2 5 4 3 4 4 3 3 1 2 2 2 3 4 4 5 5 5 6 6 6 8 9 9 8 8 8 8 7 6 6 5 5 6 6 4 4 3 3 3 3
4 7 6 6 5 4 3 4 3 2 1 1 1 2 2 2 3 3 4 5 5 6 7 7 8 8 8 8 9 9 8 8 7 7 6 5 5 5 5 5 5 5 4 4
5 7 7 5 3 4 3 2 1 2 1 0 2 1 2 2 2 2 3 4 5 7 7 8 8 8 8 9 10 10 9 8 7 7 7 6 6 6 6 6 6 6 5 5
4 3 3 6 6 5 3 3 2 1 1 2 1 1 1 0 1 1 2 3 4 6 7 7 8 9 9 10 11 11 9 9 8 7 6 6 5 5 9 9 11 12 10 7
5 5 5 7 6 3 2 3 2 0 0 1 2 2 1 0 1 0 1 2 4 6 6 6 7 8 9 10 11 12 11 9 8 8 7 7 6 6 6 7 10 11 12 12
6 5 5 4 5 5 3 2 2 3 3 2 2 2 2 1 1 2 2 3 4 4 5 6 7 8 8 10 11 12 11 11 10 8 8 8 8 7 6 5 5 5 8 11
7 6 6 6 4 3 2 1 2 2 3 3 3 3 3 2 3 3 4 4 3 4 4 5 6 7 6 9 11 12 11 9 8 8 8 8 7 7 7 7 6 5 4 5
10 7 5 4 3 3 2 1 1 1 2 3 3 4 4 4 4 4 4 3 3 4 4 4 6 5 5 7 9 9 9 12 10 8 8 8 7 7 7 7 7 6 7 6
7 6 5 6 5 4 2 1 1 1 2 2 3 4 4 4 4 4 5 4 3 4 3 4 5 4 4 6 8 7 7 8 13 9 8 8 8 9 8 8 8 7 7 7
6 6 6 5 5 3 2 2 2 2 2 3 4 4 4 4 4 5 5 5 4 3 3 4 4 4 3 4 5 5 6 6 7 8 7 8 8 8 8 8 8 8 6 6
7 6 5 5 4 3 2 2 3 3 3 3 4 3 3 3 4 5 5 4 4 4 5 6 7 4 3 4 4 4 5 6 6 7 7 9 9 7 7 8 7 7 6 6
6 5 5 4 4 3 3 3 3 3 3 3 3 3 4 4 5 5 4 3 2 3 6 6 5 4 4 4 4 3 4 6 6 6 6 7 7 7 7 7 7 7 7 7
5 5 4 4 3 3 3 3 3 3 3 3 3 4 4 5 5 4 4 3 4 5 6 8 5 4 4 4 4 3 4 5 5 6 6 6 6 7 7 7 7 7 7 6
4 4 4 3 4 4 3 3 3 4 4 3 3 4 4 5 5 5 3 2 5 8 6 4 4 6 6 5 2 3 4 5 5 5 5 6 6 6 6 7 7 7 6 6
5 5 5 5 5 5 5 3 3 4 4 4 4 4 4 4 4 3 4 4 5 9 6 5 7 10 9 4 2 3 4 5 5 5 5 5 6 6 6 7 7 6 6 6
6 5 5 5 4 5 6 5 4 4 4 4 4 4 4 4 3 3 3 7 9 9 5 7 10 10 8 2 2 3 4 4 4 5 5 5 5 5 5 6 6 5 6 6
6 6 6 6 6 6 6 5 5 5 5 4 5 4 4 3 3 4 4 5 8 8 5 7 9 9 5 3 3 3 3 4 5 4 5 5 5 5 5 5 5 5 5 6
6 6 6 6 6 6 5 4 4 4 4 4 4 4 3 3 3 4 3 4 5 7 5 4 5 6 4 4 4 4 4 4 5 5 4 5 5 5 5 5 7 6 5 6
6 6 5 6 6 5 5 5 5 6 5 5 5 4 3 3 3 3 4 3 4 4 4 4 4 4 4 4 4 4 4 4 4 4 4 4 4 5 5 6 5 5 5 5
Wind_Direction
221 197 167 202 205 197 209 219 228 238 234 249 259 264 251 220 202 195 197 197 196 194 186 178 172 169 164 157 152 144 138 134 130 121 112 101 92 83 76 72 70 66 67 66
336 241 199 238 231 218 225 230 238 254 260 243 249 247 236 217 202 205 210 210 204 195 187 185 180 175 169 165 161 152 149 148 142 134 125 116 107 99 91 81 72 68 64 62
268 331 3 266 228 210 208 211 208 238 251 241 238 236 229 220 209 212 216 211 203 199 194 189 183 174 173 168 159 156 155 152 151 146 137 128 120 107 96 88 80 70 62 60
147 91 242 246 258 201 218 241 226 242 259 244 237 242 236 217 210 217 215 208 203 193 185 175 166 162 157 155 159 160 159 158 156 150 141 133 125 115 105 97 87 76 65 58
148 228 279 293 270 192 199 265 236 239 256 258 254 265 270 229 209 214 211 202 192 177 165 157 160 157 154 159 162 163 165 165 161 156 150 144 135 126 115 107 95 85 76 66
155 216 255 261 284 183 144 287 276 240 258 256 184 216 258 228 185 178 156 148 146 140 139 153 158 155 158 166 169 174 171 166 160 157 155 152 146 132 119 119 118 110 92 69
183 234 267 260 264 141 186 266 302 283 271 234 200 218 248 119 112 119 118 121 130 138 150 160 158 158 167 173 182 173 159 158 158 157 157 154 146 137 136 132 131 131 121 25
179 214 255 259 150 182 231 281 305 308 300 219 197 148 93 102 110 116 117 124 136 144 152 157 162 167 176 186 175 158 157 161 163 162 164 163 156 155 155 155 164 186 223 268
198 221 247 255 224 252 252 278 298 313 329 146 142 148 134 133 137 141 144 147 151 156 161 169 176 180 188 184 163 161 166 172 174 173 175 171 172 174 174 179 190 209 220 244
259 272 277 274 266 279 261 251 285 311 322 161 158 160 150 148 157 162 166 167 165 168 182 191 192 195 192 173 167 170 178 182 183 185 186 184 187 189 189 193 202 213 219 233
270 292 314 316 328 321 316 312 336 2 18 59 138 155 169 174 182 186 188 185 183 192 203 204 195 199 191 178 175 181 187 189 191 195 195 196 200 206 205 208 203 206 214 214
255 292 287 292 312 321 308 301 291 279 13 22 70 139 126 188 213 202 203 194 202 212 218 213 200 202 195 186 184 188 194 197 198 198 199 200 203 223 234 226 234 234 225 216
281 303 278 279 302 315 306 306 315 332 138 39 27 36 55 31 353 322 256 231 230 232 230 220 210 209 200 192 191 197 201 199 198 199 201 202 203 210 227 235 238 239 236 234
304 307 295 300 308 327 334 346 47 60 54 58 40 32 32 15 358 334 294 274 263 254 241 227 221 220 205 194 197 203 205 204 201 202 201 202 205 209 210 214 226 239 240 240
334 320 289 293 304 325 348 26 49 41 32 25 28 28 13 346 321 311 305 300 286 266 255 241 235 234 207 197 201 206 206 206 204 201 200 202 203 204 209 216 223 227 226 243
314 315 316 308 301 317 343 357 347 349 4 2 6 0 344 324 313 318 323 323 300 278 273 260 253 249 215 203 204 208 211 211 202 200 200 202 203 207 211 216 221 224 227 226
314 318 321 317 309 309 317 328 341 358 354 347 340 335 336 336 334 338 335 328 306 289 291 282 277 272 231 210 207 210 209 211 208 206 207 206 205 210 212 213 218 223 228 223
313 307 306 304 303 299 318 4 19 9 351 333 332 339 344 342 331 326 325 325 326 325 329 317 306 293 255 227 214 210 205 206 205 209 210 211 213 211 210 212 217 222 227 229
335 337 343 349 348 348 3 8 1 352 344 340 338 336 334 333 328 324 326 333 339 333 332 326 327 319 285 256 227 209 206 208 211 214 213 219 220 214 212 214 217 217 219 219
338 344 355 3 9 12 7 358 350 342 343 344 341 337 337 335 332 328 329 327 328 312 314 324 328 318 297 275 243 218 215 216 218 219 216 217 217 216 214 216 216 217 219 222
326 334 342 346 348 353 347 335 326 321 326 332 328 322 320 323 327 327 325 319 325 326 325 330 331 316 301 287 255 227 222 226 227 224 221 221 222 220 217 217 218 219 220 223
306 307 309 312 314 313 308 302 301 302 308 312 314 315 317 321 326 321 297 290 315 328 330 319 313 310 308 296 249 234 232 233 232 228 226 224 223 224 223 221 222 222 220 221
289 285 286 288 289 291 289 279 278 283 288 292 298 301 300 300 303 306 311 317 317 325 329 313 317 318 315 301 253 242 240 238 236 231 229 227 226 227 227 225 225 223 220 222
285 282 279 278 278 279 283 283 277 271 274 279 278 278 281 291 294 268 276 309 322 325 321 320 327 326 326 314 277 260 250 245 241 236 232 230 228 227 228 228 228 226 225 227
277 276 274 274 272 267 268 277 281 274 273 273 272 268 258 245 257 284 293 299 316 324 320 327 334 336 336 312 294 277 266 255 250 243 234 235 232 230 230 228 228 230 231 232
274 273 269 260 257 261 260 259 262 265 264 274 278 265 257 255 262 275 285 294 305 319 322 316 322 328 322 310 300 290 280 278 277 263 245 240 237 236 235 234 233 233 235 237
278 274 274 274 265 249 244 244 250 257 251 253 267 264 256 258 264 272 283 291 300 306 306 310 314 315 312 307 302 297 289 280 272 267 259 248 242 240 240 238 238 237 236 238
Height
1483 1482 1484 1485 1486 1487 1488 1487 1489 1484 1484 1475 1473 1472 1470 1471 1472 1474 1475 1477 1479 1481 1483 1485 1486 1487 1488 1488 1488 1487 1487 1487 1486 1486 1486 1486 1486 1486 1486 1486 1485 1485 1485 1484
1484 1482 1484 1485 1484 1484 1483 1482 1481 1480 1474 1469 1468 1468 1468 1468 1469 1470 1472 1474 1476 1478 1480 1481 1482 1483 1484 1484 1484 1484 1483 1483 1483 1483 1484 1484 1484 1484 1484 1484 1484 1483 1483 1483
1487 1484 1481 1484 1475 1476 1477 1474 1474 1473 1465 1464 1465 1464 1463 1463 1464 1465 1467 1470 1472 1474 1476 1477 1479 1480 1481 1481 1481 1481 1480 1480 1481 1481 1481 1482 1482 1482 1483 1483 1483 1483 1483 1483
1489 1487 1491 1474 1467 1468 1470 1468 1467 1464 1460 1459 1458 1457 1458 1459 1460 1461 1463 1466 1468 1471 1472 1474 1475 1476 1477 1477 1478 1478 1478 1478 1478 1479 1479 1480 1481 1481 1482 1482 1482 1483 1483 1482
1490 1491 1485 1472 1465 1466 1468 1465 1460 1460 1457 1455 1454 1455 1453 1453 1455 1457 1460 1463 1465 1467 1469 1470 1472 1473 1474 1474 1475 1475 1475 1476 1476 1477 1478 1479 1480 1481 1481 1482 1482 1482 1482 1482
1488 1485 1480 1470 1463 1462 1465 1464 1457 1456 1454 1452 1453 1456 1452 1450 1452 1454 1457 1459 1461 1463 1465 1467 1468 1469 1470 1471 1472 1473 1473 1474 1475 1476 1477 1478 1479 1480 1480 1481 1482 1482 1482 1482
1483 1482 1477 1465 1461 1462 1468 1464 1456 1453 1451 1449 1450 1450 1450 1450 1451 1453 1455 1457 1459 1460 1462 1464 1465 1467 1468 1469 1470 1471 1472 1472 1473 1475 1476 1477 1478 1479 1480 1480 1481 1481 1481 1481
1480 1480 1476 1460 1460 1463 1461 1456 1454 1452 1449 1448 1448 1449 1449 1449 1450 1452 1453 1455 1457 1459 1460 1462 1463 1464 1465 1467 1468 1469 1470 1471 1472 1473 1475 1476 1477 1478 1478 1479 1479 1480 1480 1480
1473 1469 1461 1459 1458 1458 1457 1455 1454 1452 1450 1449 1449 1449 1450 1450 1451 1452 1453 1454 1456 1457 1458 1459 1461 1462 1463 1465 1466 1467 1468 1469 1471 1472 1473 1474 1475 1476 1477 1477 1478 1478 1478 1478
1467 1461 1458 1457 1456 1455 1455 1454 1453 1452 1451 1451 1450 1450 1450 1451 1451 1452 1453 1453 1454 1455 1456 1457 1458 1459 1461 1462 1463 1465 1466 1467 1469 1470 1471 1472 1473 1474 1475 1475 1476 1476 1476 1476
1465 1460 1457 1454 1455 1454 1453 1452 1452 1452 1451 1451 1450 1450 1450 1450 1451 1451 1451 1452 1452 1453 1454 1454 1455 1456 1457 1459 1460 1461 1463 1464 1466 1467 1468 1469 1470 1471 1472 1473 1473 1473 1473 1473
1463 1460 1460 1456 1454 1453 1452 1451 1451 1450 1450 1450 1449 1449 1449 1449 1449 1450 1450 1450 1450 1450 1451 1451 1452 1453 1454 1455 1456 1457 1459 1460 1462 1463 1465 1466 1467 1468 1468 1469 1470 1469 1469 1469
1462 1459 1457 1455 1453 1452 1451 1450 1449 1449 1448 1448 1448 1448 1447 1447 1447 1447 1447 1447 1447 1447 1447 1447 1448 1448 1449 1451 1452 1453 1454 1456 1458 1459 1460 1462 1463 1464 1465 1466 1466 1466 1466 1465
1459 1457 1454 1452 1451 1450 1449 1448 1447 1446 1446 1446 1446 1445 1445 1445 1444 1444 1444 1443 1443 1443 1443 1443 1443 1444 1445 1446 1447 1448 1449 1451 1453 1454 1456 1457 1458 1459 1460 1461 1461 1461 1461 1461
1456 1454 1453 1450 1449 1447 1446 1446 1445 1445 1444 1444 1443 1443 1442 1442 1441 1441 1440 1439 1439 1439 1439 1438 1438 1439 1440 1440 1441 1442 1444 1445 1447 1448 1450 1451 1453 1454 1454 1455 1455 1456 1456 1456
1453 1451 1449 1448 1446 1445 1444 1444 1443 1443 1442 1442 1441 1440 1440 1439 1438 1437 1436 1436 1435 1435 1434 1434 1434 1434 1435 1435 1436 1437 1438 1439 1441 1442 1444 1445 1446 1447 1448 1449 1449 1450 1450 1451
1452 1449 1447 1446 1445 1443 1443 1442 1441 1441 1440 1440 1439 1438 1437 1436 1435 1434 1433 1432 1431 1431 1430 1430 1430 1430 1430 1430 1430 1431 1432 1433 1434 1435 1436 1438 1439 1440 1441 1442 1443 1443 1444 1445
1451 1448 1447 1445 1443 1442 1441 1440 1440 1439 1438 1438 1437 1436 1435 1434 1432 1431 1430 1429 1428 1427 1426 1426 1425 1425 1425 1425 1425 1426 1426 1427 1428 1429 1430 1431 1432 1433 1435 1435 1436 1437 1437 1438
1448 1446 1444 1443 1442 1441 1440 1439 1438 1437 1436 1436 1435 1433 1432 1431 1430 1429 1427 1426 1425 1424 1423 1422 1421 1421 1421 1420 1421 1421 1421 1421 1422 1423 1423 1424 1425 1426 1427 1428 1429 1430 1430 1431
1447 1445 1443 1442 1440 1439 1438 1437 1436 1435 1434 1433 1432 1431 1430 1429 1428 1426 1425 1423 1422 1421 1420 1418 1417 1417 1416 1416 1416 1415 1416 1416 1416 1417 1417 1418 1418 1419 1420 1421 1421 1422 1423 1424
1446 1444 1442 1441 1440 1438 1437 1436 1435 1434 1433 1431 1430 1429 1428 1427 1425 1424 1422 1421 1420 1418 1417 1415 1414 1413 1412 1411 1411 1411 1410 1410 1411 1411 1411 1411 1412 1412 1413 1414 1414 1415 1416 1417
1445 1443 1442 1440 1439 1437 1436 1435 1434 1432 1431 1430 1429 1427 1426 1425 1423 1422 1420 1419 1417 1415 1414 1412 1411 1409 1408 1407 1407 1406 1406 1405 1405 1405 1405 1405 1405 1406 1406 1407 1408 1409 1410 1411
1443 1441 1440 1438 1437 1436 1435 1434 1432 1431 1429 1428 1427 1425 1424 1422 1421 1419 1418 1417 1414 1413 1411 1409 1407 1406 1404 1403 1402 1402 1401 1401 1400 1400 1399 1399 1399 1400 1400 1401 1402 1403 1404 1405
1440 1439 1437 1436 1435 1433 1432 1431 1430 1428 1427 1426 1424 1423 1422 1420 1419 1417 1415 1414 1412 1410 1408 1406 1404 1402 1401 1400 1399 1398 1397 1396 1395 1395 1394 1394 1394 1395 1395 1396 1397 1398 1399 1400
1437 1435 1434 1432 1431 1430 1429 1428 1426 1425 1424 1423 1422 1421 1419 1417 1416 1414 1413 1411 1409 1407 1405 1403 1401 1399 1398 1396 1395 1394 1393 1392 1391 1390 1390 1390 1390 1390 1391 1391 1392 1393 1394 1394
1433 1431 1430 1428 1427 1426 1425 1423 1422 1421 1420 1419 1419 1417 1416 1415 1413 1411 1410 1408 1406 1404 1402 1400 1398 1396 1395 1393 1392 1390 1389 1388 1387 1386 1386 1386 1386 1386 1387 1387 1388 1388 1389 1389
1428 1427 1425 1424 1423 1421 1420 1419 1417 1417 1416 1415 1414 1413 1412 1411 1410 1408 1407 1405 1403 1401 1399 1397 1395 1393 1391 1389 1388 1387 1385 1384 1383 1382 1382 1382 1382 1382 1382 1383 1383 1383 1383 1383